This demonstration page uses our WeatherBlox Daily Observations layout. Learn more.

Left ArrowRight Arrow

44.8408, -93.29828

Hourly Observations for August 3, 2017

Temp ( °F °C ) Dew Point ( °F °C ) Humidity (%) Winds ( mph kmh ) Pressure ( in mb ) Visibility ( mi km ) Precip ( " mm )
12:53 am 00:53 Cloudy 68 20 53 11.7 59 59 E 14 22 30.04 1017 10 16 0.00 0.00
1:53 am 01:53 Mostly Cloudy 66 18.9 52 11.1 61 61 E 12 19 30.02 1017 10 16 0.00 0.00
2:27 am 02:27 Cloudy 66 18.9 53 11.7 63 63 E 12 19 30.00 1016 10 16 0.00 0.00
2:53 am 02:53 Cloudy 66 18.9 53 11.7 63 63 E 12 19 29.99 1016 10 16 0.00 0.00
3:53 am 03:53 Cloudy 65 18.3 54 12.2 68 68 E 12 19 29.96 1015 10 16 0.00 0.00
4:49 am 04:49 Cloudy 66 19 55 13 68 68 E 12 19 29.94 1014 10 16 0.00 0.00
4:53 am 04:53 Cloudy 66 18.9 56 13.3 70 70 E 12 19 29.94 1014 10 16 0.00 0.00
5:53 am 05:53 Cloudy with Light Rain 66 18.9 59 15 78 78 E 12 19 29.91 1013 9 14 0.00 0.03
6:53 am 06:53 Cloudy with Nearby Thunderstorms 65 18.3 61 16.1 87 87 S 7 11 29.90 1013 9 14 0.00 0.03
7:20 am 07:20 Cloudy with Nearby Thunderstorms 65 18.3 62 16.7 90 90 E 10 17 29.91 1013 10 16 0.00 0.03
7:32 am 07:32 Cloudy with Light Rain 65 18.3 62 16.7 90 90 E 5 7 29.91 1013 5 8 0.01 0.25
7:37 am 07:37 Cloudy with Light Rain 65 18.3 62 16.7 90 90 NE 3 6 29.91 1013 4 6 0.01 0.25
7:50 am 07:50 Cloudy with Light Rain 61 16 57 14 88 88 NNW 20 31 29.91 1013 10 16 0.05 1.27
7:53 am 07:53 Cloudy with Light Rain 60 15.6 56 13.3 86 86 NNW 18 30 29.89 1012 10 16 0.05 1.27
8:07 am 08:07 Cloudy with Heavy Rain 59 15 56 13.3 90 90 N 18 30 29.88 1012 2 3 0.07 1.78
8:16 am 08:16 Cloudy with Heavy Rain 59 15 56 13.3 90 90 NNW 14 22 29.91 1013 5 8 0.22 5.59
8:23 am 08:23 Cloudy with Light Rain 58 14.4 56 13.3 93 93 NNW 13 20 29.91 1013 10 16 0.22 5.59
8:53 am 08:53 Cloudy 59 15 56 13.3 90 90 N 14 22 29.88 1012 10 16 0.22 5.59
9:37 am 09:37 Cloudy 58 14.4 55 12.8 90 90 N 16 26 29.91 1013 10 16 0.00 0.00
9:53 am 09:53 Cloudy 58 14.4 54 12.2 87 87 N 15 24 29.90 1013 10 16 0.00 0.00
10:33 am 10:33 Cloudy 57 13.9 53 11.7 87 87 N 18 30 29.91 1013 10 16 0.00 0.00
11:53 am 11:53 Cloudy with Light Rain 55 12.8 53 11.7 93 93 N 20 31 29.93 1013 3 5 0.01 0.25
12:20 pm 12:20 Cloudy with Light Rain 55 12.8 53 11.7 93 93 N 18 30 29.97 1015 3 5 0.00 0.03
12:53 pm 12:53 Cloudy with Drizzle 56 13.3 53 11.7 90 90 N 15 24 29.94 1014 6 10 0.00 0.03
1:53 pm 13:53 Cloudy 56 13.3 51 10.6 84 84 N 20 31 29.96 1015 10 16 0.00 0.03
2:00 pm 14:00 Cloudy 56 13.3 51 10.6 84 84 N 18 30 29.94 1014 10 16 0.00 0.00
2:23 pm 14:23 Cloudy 57 13.9 50 10 78 78 N 18 30 29.94 1014 10 16 0.00 0.00
2:53 pm 14:53 Cloudy 57 13.9 49 9.4 74 74 N 23 37 29.97 1015 10 16 0.00 0.03
3:53 pm 15:53 Cloudy 57 13.9 49 9.4 74 74 N 22 35 29.98 1015 10 16 0.00 0.03
4:26 pm 16:26 Cloudy with Light Rain 58 14.4 50 10 75 75 N 17 28 29.97 1015 10 16 0.00 0.03
4:53 pm 16:53 Cloudy 59 15 49 9.4 69 69 N 17 28 29.99 1016 10 16 0.00 0.03
5:33 pm 17:33 Cloudy 56 13.3 50 10 81 81 NNW 20 31 30.00 1016 10 16 0.00 0.03
5:45 pm 17:45 Cloudy 57 13.9 50 10 78 78 NNW 21 33 29.97 1015 10 16 0.00 0.03
5:53 pm 17:53 Cloudy 56 13.3 49 9.4 77 77 NNW 17 28 30.01 1016 10 16 0.00 0.03
6:41 pm 18:41 Cloudy 57 13.9 48 8.9 72 72 N 17 28 30.00 1016 10 16 0.00 0.00
6:53 pm 18:53 Cloudy 57 13.9 48 8.9 72 72 NNW 15 24 30.01 1016 10 16 0.00 0.00
7:26 pm 19:26 Cloudy with Light Rain 56 13.3 49 9.4 77 77 NNE 13 20 30.03 1017 10 16 0.00 0.03
7:53 pm 19:53 Cloudy 57 13.9 47 8.3 69 69 N 13 20 30.03 1017 10 16 0.00 0.03
8:53 pm 20:53 Cloudy 57 13.9 46 7.8 67 67 N 15 24 30.03 1017 10 16 0.00 0.00
9:53 pm 21:53 Cloudy 56 13.3 46 7.8 70 70 NNW 13 20 30.03 1017 10 16 0.00 0.00
10:53 pm 22:53 Cloudy 55 12.8 47 8.3 74 74 NNW 12 19 30.04 1017 10 16 0.00 0.03
11:53 pm 23:53 Cloudy with Light Rain 54 12.2 47 8.3 77 77 NW 14 22 30.03 1017 10 16 0.00 0.03

Powered by AerisWeather